This is the latest recevied weather packets stored in our database for station/object CE2KVL-1. If no packets are shown the sender has not sent any weather packets the latest 10 day(s).
| Time | Temp. | Humidity | Pressure | Rain* | Wind** | Luminosity | Snow |
|---|---|---|---|---|---|---|---|
| 1777476177 | 18.33° C | 73% | 1019.6 hPa | - | - | - | - |
| 1777475877 | 18.33° C | 72% | 1020.4 hPa | - | - | - | - |
| 1777475577 | 18.33° C | 77% | 1019.8 hPa | - | - | - | - |
| 1777475277 | 18.33° C | 76% | 1020.3 hPa | - | - | - | - |
| 1777474977 | 18.33° C | 77% | 1019.6 hPa | - | - | - | - |
| 1777474677 | 17.78° C | 77% | 1020.1 hPa | - | - | - | - |
| 1777474377 | 17.78° C | 76% | 1020.4 hPa | - | - | - | - |
| 1777474077 | 17.78° C | 78% | 1020.5 hPa | - | - | - | - |
| 1777473777 | 17.78° C | 77% | 1020.4 hPa | - | - | - | - |
| 1777473477 | 17.78° C | 78% | 1020.4 hPa | - | - | - | - |
| 1777473177 | 17.22° C | 78% | 1020.6 hPa | - | - | - | - |
| 1777472877 | 17.22° C | 80% | 1020.7 hPa | - | - | - | - |
| 1777472577 | 17.22° C | 81% | 1020.7 hPa | - | - | - | - |
| 1777472277 | 17.22° C | 82% | 1021.2 hPa | - | - | - | - |
| 1777471978 | 17.22° C | 83% | 1020.7 hPa | - | - | - | - |
| 1777471677 | 16.67° C | 83% | 1020.8 hPa | - | - | - | - |
| 1777471377 | 16.67° C | 86% | 1020.9 hPa | - | - | - | - |
| 1777471077 | 16.67° C | 88% | 1021.1 hPa | - | - | - | - |
| 1777470777 | 16.11° C | 87% | 1021.1 hPa | - | - | - | - |
| 1777470477 | 16.11° C | 86% | 1021.1 hPa | - | - | - | - |
| 1777470177 | 16.11° C | 87% | 1021.1 hPa | - | - | - | - |
| 1777469877 | 16.11° C | 89% | 1021.2 hPa | - | - | - | - |
| 1777469577 | 16.11° C | 90% | 1021.5 hPa | - | - | - | - |
| 1777469277 | 15.56° C | 91% | 1021.4 hPa | - | - | - | - |
| 1777468977 | 15.56° C | 90% | 1021.7 hPa | - | - | - | - |
* Rain since midnight (hover to see other rain measurements)
** Current wind speed in m/s (hover to see current wind gust speed)